Pas de vigilance météorologique particulière.    Il n'y a aucun avertissement


Thunder radar more information blitzortung!


Rain radar more information rain snow radar


Visitez nos sites météorologiques autres:

Template documentation
and downloads

And another site



Weather Underground Historique Text

par jour Résumé pour octobre 17, 2018 Les unités:  métriques    impériales   les deux
« Précédente Jour
Suivant Jour »
par jour Par semaine mensuel Annuel personnalisé
  actuel: élevé: Basse: Moyenne:
Température: -11 °C -17.8 °C -11 °C -9.7 °C
Point de rosée: -12.9 °C -17.8 °C -13 °C -12.8 °C
Humidité: 79 % Humidity % 65 % 68 %
Vitesse du vent: 0 km/h 0 km/h 0 km/h 0.8 km/h
Rafale de vent: 0 km/h 0 km/h - -
Vent:Calm - - South
Pression baro: 34462.7 hPa 0 hPa 34442.4 hPa -
Précipitations: 0 mm      
Historical Graphs
 
 
Les données tabulaires pour octobre 17, 2018
Temps Température Point de rosée Pression baro Vent Vitesse du vent Rafale de vent Humidité Les précipitations (horaires)
-17.8 °C -17.8 °C 0 hPa Calm     Humidity % 0 mm
00:04 -9.1 °C -12.8 °C 34476.3 hPa Calm     65 % 0 mm
00:09 -9.2 °C -12.8 °C 34476.3 hPa Calm     65 % 0 mm
00:14 -9.2 °C -12.8 °C 34476.3 hPa Calm     65 % 0 mm
00:19 -9.2 °C -12.8 °C 34476.3 hPa Calm     65 % 0 mm
00:24 -9.2 °C -12.8 °C 34476.3 hPa Calm     65 % 0 mm
00:29 -9.2 °C -12.8 °C 34476.3 hPa Calm     65 % 0 mm
00:34 -9.2 °C -12.7 °C 34476.3 hPa Calm     66 % 0 mm
00:39 -9.2 °C -12.7 °C 34476.3 hPa Calm     66 % 0 mm
00:44 -9.3 °C -12.8 °C 34476.3 hPa Calm     66 % 0 mm
00:49 -9.3 °C -12.8 °C 34476.3 hPa Calm     66 % 0 mm
00:54 -9.3 °C -12.8 °C 34476.3 hPa Calm   2.6 km/h 66 % 0 mm
00:59 -9.3 °C -12.8 °C 34476.3 hPa Calm   2.6 km/h 66 % 0 mm
01:04 -9.4 °C -12.9 °C 34476.3 hPa Calm   2.6 km/h 66 % 0 mm
01:09 -9.4 °C -12.8 °C 34476.3 hPa Calm     67 % 0 mm
01:14 -9.4 °C -12.8 °C 34476.3 hPa Calm     67 % 0 mm
01:19 -9.4 °C -12.8 °C 34462.7 hPa Calm     67 % 0 mm
01:24 -9.5 °C -12.9 °C 34462.7 hPa Calm     67 % 0 mm
01:29 -9.5 °C -12.8 °C 34462.7 hPa Calm     68 % 0 mm
01:34 -9.5 °C -12.8 °C 34462.7 hPa Calm   2.6 km/h 68 % 0 mm
01:39 -9.5 °C -12.8 °C 34462.7 hPa Calm   12.9 km/h 68 % 0 mm
01:44 -9.4 °C -12.7 °C 34462.7 hPa SE 2.6 km/h 15.6 km/h 68 % 0 mm
01:49 -9.4 °C -12.7 °C 34462.7 hPa Calm   15.6 km/h 68 % 0 mm
01:54 -9.4 °C -12.8 °C 34462.7 hPa Calm   15.6 km/h 67 % 0 mm
01:59 -9.4 °C -12.8 °C 34462.7 hPa SSE 5.1 km/h 7.7 km/h 67 % 0 mm
02:04 -9.4 °C -12.7 °C 34462.7 hPa SSE 2.6 km/h 10.3 km/h 68 % 0 mm
02:09 -9.3 °C -12.7 °C 34462.7 hPa Calm   10.3 km/h 67 % 0 mm
02:14 -9.3 °C -12.7 °C 34462.7 hPa SSE 7.7 km/h 12.9 km/h 67 % 0 mm
02:19 -9.3 °C -12.7 °C 34462.7 hPa South 5.1 km/h 12.9 km/h 67 % 0 mm
02:24 -9.3 °C -12.7 °C 34462.7 hPa South 2.6 km/h 12.9 km/h 67 % 0 mm
02:29 -9.3 °C -12.7 °C 34462.7 hPa Calm   12.9 km/h 67 % 0 mm
02:34 -9.3 °C -12.7 °C 34452.6 hPa Calm   12.9 km/h 67 % 0 mm
02:39 -9.2 °C -12.6 °C 34452.6 hPa Calm   15.6 km/h 67 % 0 mm
02:44 -9.2 °C -12.6 °C 34452.6 hPa South 2.6 km/h 15.6 km/h 67 % 0 mm
02:49 -9.1 °C -12.6 °C 34452.6 hPa SSE 2.6 km/h 15.6 km/h 66 % 0 mm
02:54 -9.1 °C -12.6 °C 34452.6 hPa SSE 2.6 km/h 12.9 km/h 66 % 0 mm
02:59 -9.1 °C -12.6 °C 34452.6 hPa Calm   12.9 km/h 66 % 0 mm
03:04 -9.1 °C -12.6 °C 34452.6 hPa SSE 10.3 km/h 20.8 km/h 66 % 0 mm
03:09 -9.1 °C -12.7 °C 34452.6 hPa South 5.1 km/h 20.8 km/h 65 % 0 mm
03:14 -9.1 °C -12.7 °C 34452.6 hPa South 2.6 km/h 20.8 km/h 65 % 0 mm
03:19 -9.1 °C -12.7 °C 34452.6 hPa SSE 2.6 km/h 15.6 km/h 65 % 0 mm
03:24 -9.1 °C -12.7 °C 34452.6 hPa Calm   20.8 km/h 65 % 0 mm
03:29 -9.1 °C -12.7 °C 34452.6 hPa SE 5.1 km/h 20.8 km/h 65 % 0 mm
03:34 -9.1 °C -12.7 °C 34452.6 hPa Calm   20.8 km/h 65 % 0 mm
03:39 -9 °C -12.7 °C 34452.6 hPa Calm   15.6 km/h 65 % 0 mm
03:44 -9 °C -12.7 °C 34452.6 hPa Calm   12.9 km/h 65 % 0 mm
03:49 -9 °C -12.7 °C 34452.6 hPa Calm   12.9 km/h 65 % 0 mm
03:54 -9 °C -12.7 °C 34442.4 hPa Calm   12.9 km/h 65 % 0 mm
03:59 -9 °C -12.7 °C 34442.4 hPa Calm   12.9 km/h 65 % 0 mm
04:04 -9 °C -12.7 °C 34442.4 hPa SSE 10.3 km/h 10.3 km/h 65 % 0 mm
04:09 -9 °C -12.7 °C 34442.4 hPa Calm   10.3 km/h 65 % 0 mm
04:14 -9 °C -12.7 °C 34442.4 hPa Calm   10.3 km/h 65 % 0 mm
04:19 -9.1 °C -12.7 °C 34442.4 hPa Calm   10.3 km/h 65 % 0 mm
04:24 -9 °C -12.7 °C 34442.4 hPa Calm   10.3 km/h 65 % 0 mm
04:29 -9.1 °C -12.7 °C 34442.4 hPa Calm   10.3 km/h 65 % 0 mm
04:34 -9.1 °C -12.7 °C 34452.6 hPa Calm   7.7 km/h 65 % 0 mm
04:39 -9.1 °C -12.8 °C 34452.6 hPa Calm   7.7 km/h 65 % 0 mm
04:44 -9.1 °C -12.8 °C 34452.6 hPa Calm   5.1 km/h 65 % 0 mm
04:49 -9.2 °C -12.7 °C 34452.6 hPa Calm   5.1 km/h 66 % 0 mm
04:54 -9.2 °C -12.7 °C 34452.6 hPa Calm     66 % 0 mm
04:59 -9.3 °C -12.8 °C 34452.6 hPa Calm     66 % 0 mm
05:04 -9.3 °C -12.8 °C 34452.6 hPa Calm     66 % 0 mm
05:09 -9.5 °C -12.9 °C 34452.6 hPa Calm     67 % 0 mm
05:14 -9.6 °C -12.9 °C 34452.6 hPa Calm     67 % 0 mm
05:19 -9.6 °C -12.8 °C 34452.6 hPa Calm   2.6 km/h 68 % 0 mm
05:24 -9.7 °C -12.9 °C 34462.7 hPa Calm   2.6 km/h 68 % 0 mm
05:29 -9.8 °C -12.9 °C 34462.7 hPa Calm   2.6 km/h 69 % 0 mm
05:34 -9.8 °C -12.8 °C 34462.7 hPa Calm     70 % 0 mm
05:39 -9.9 °C -12.9 °C 34462.7 hPa Calm   5.1 km/h 70 % 0 mm
05:44 -9.9 °C -12.8 °C 34462.7 hPa West 5.1 km/h 5.1 km/h 71 % 0 mm
05:49 -10.1 °C -13 °C 34462.7 hPa WSW 2.6 km/h 5.1 km/h 71 % 0 mm
05:54 -10.2 °C -12.9 °C 34462.7 hPa Calm   10.3 km/h 72 % 0 mm
05:59 -10.3 °C -12.9 °C 34462.7 hPa Calm   10.3 km/h 73 % 0 mm
06:04 -10.4 °C -13 °C 34462.7 hPa Calm   10.3 km/h 73 % 0 mm
06:09 -10.4 °C -12.9 °C 34462.7 hPa Calm   5.1 km/h 74 % 0 mm
06:14 -10.4 °C -12.9 °C 34462.7 hPa Calm   5.1 km/h 74 % 0 mm
06:19 -10.5 °C -12.9 °C 34462.7 hPa Calm   5.1 km/h 75 % 0 mm
06:24 -10.6 °C -13 °C 34476.3 hPa Calm     75 % 0 mm
06:29 -10.6 °C -13 °C 34476.3 hPa Calm     75 % 0 mm
06:34 -10.7 °C -12.9 °C 34476.3 hPa Calm     76 % 0 mm
06:39 -10.7 °C -13 °C 34476.3 hPa Calm     76 % 0 mm
06:44 -10.7 °C -12.9 °C 34476.3 hPa Calm     77 % 0 mm
06:49 -10.8 °C -12.9 °C 34476.3 hPa Calm     77 % 0 mm
06:54 -10.8 °C -13 °C 34476.3 hPa Calm     77 % 0 mm
06:59 -10.9 °C -12.9 °C 34476.3 hPa Calm     78 % 0 mm
07:04 -10.9 °C -12.9 °C 34476.3 hPa Calm     78 % 0 mm
07:09 -10.9 °C -13 °C 34462.7 hPa Calm     78 % 0 mm
07:14 -11 °C -12.9 °C 34462.7 hPa Calm     79 % 0 mm
07:19 -11 °C -12.9 °C 34462.7 hPa Calm     79 % 0 mm
Météo
Compliments of Weather Underground - 2 mb

Script développé par  Jim McMurry - jmcmurry@mwt.net Adapté pour le modèle par  Wim van der Kuil - Leuven-Template.eu

Vous trouverez notre info météo Également à:

Weather Underground

Équipement que nous utilisons:

Station de Météo
Davis VP2

Programme Météo
Meteohub

Ordinateur Météo
RaspberryPI 2

Provider
OVH

Davis VP2

Meteohub

RaspberryPI 2

OVH